Location: �mondeville
(49.4591°N, 1.3431°W)
Time: 19:58:38
(UTC+00:00)

Cosmos 2333 Rocket - Pass Details

Date: 22 October 2019
Orbit: 838 x 864 km, 70.8° (Epoch: 21 November)

Event Time Altitude Azimuth Distance (km) Brightness Sun altitude
Exits shadow 02:09:33 19° 64° (ENE) 1,903 4.5 -41.9°
Drops below altitude 10° 02:11:37 10° 48° (NE) 2,486 5.3 -41.6°
Sets 02:14:23 0° 37° (NE) 3,431 6.2 -41.3°
